Location: ?????
(37.7324°N, 23.9257°E)
Time: 18:33:23
(UTC+00:00)

SL-4 R/B - Visible Passes

Search period start: 13 April 2021 00:00
Search period end: 23 April 2021 00:00
Orbit: 428 x 663 km, 51.6° (Epoch: 13 April)

Date Brightness Start Highest point End Pass type
(mag) Time Alt. Az. Time Alt. Az. Time Alt. Az.
13 Apr 4.9 00:22:37 17° N 00:22:37 17° N 00:24:59 10° NNE visible
13 Apr 5.0 01:59:56 10° NNW 02:02:55 16° N 02:05:52 10° NE visible
14 Apr 5.0 00:15:43 16° N 00:15:43 16° N 00:18:08 10° NNE visible
14 Apr 4.9 01:53:07 10° NNW 01:56:17 17° N 01:59:24 10° NE visible
15 Apr 5.0 00:08:50 16° N 00:08:50 16° N 00:11:20 10° NNE visible
15 Apr 4.9 01:46:14 10° NNW 01:49:37 19° NNE 01:52:58 10° ENE visible
16 Apr 5.1 00:01:56 15° N 00:01:56 15° N 00:04:37 10° NNE visible
16 Apr 4.8 01:39:20 10° NNW 01:42:57 21° NNE 01:46:32 10° ENE visible
16 Apr 2.9 03:18:39 10° NW 03:23:26 64° NE 03:28:00 10° ESE visible
16 Apr 5.1 23:55:06 15° N 23:55:09 15° N 23:57:56 10° NE visible
17 Apr 4.6 01:32:24 10° NNW 01:36:16 23° NNE 01:40:04 10° ENE visible
17 Apr 2.5 03:11:44 10° NW 03:16:35 82° NE 03:21:12 10° SE visible
17 Apr 5.1 23:48:21 15° N 23:48:31 15° N 23:51:20 10° NE visible
18 Apr 4.4 01:25:28 10° NW 01:29:33 27° NNE 01:33:35 10° E visible
18 Apr 2.3 03:04:53 10° NW 03:09:42 78° SW 03:14:19 10° SE visible
18 Apr 5.1 23:41:44 16° N 23:41:53 16° N 23:44:48 10° NE visible
19 Apr 4.1 01:18:31 10° NW 01:22:49 31° NNE 01:27:04 10° E visible
19 Apr 2.4 02:58:03 10° WNW 03:02:47 59° SW 03:07:21 10° SE visible
19 Apr 2.7 18:29:47 10° SSW 18:33:34 34° SE 18:33:34 34° SE visible
19 Apr 4.9 20:09:04 10° WSW 20:09:23 12° W 20:09:23 12° W visible
19 Apr 5.1 23:35:26 16° NNE 23:35:26 16° NNE 23:38:19 10° NE visible
20 Apr 3.8 01:11:34 10° NW 01:16:03 37° NNE 01:20:29 10° E visible
20 Apr 2.7 02:51:16 10° WNW 02:55:50 44° SW 03:00:16 10° SSE visible
20 Apr 2.4 18:22:37 10° SSW 18:26:42 46° SE 18:30:52 11° ENE visible
20 Apr 3.8 20:02:28 10° W 20:06:30 33° NNW 20:06:41 33° NNW visible
20 Apr 5.1 23:29:53 16° NNE 23:29:53 16° NNE 23:31:52 10° NE visible
21 Apr 3.4 01:05:33 15° NW 01:09:16 45° NNE 01:13:50 10° ESE visible
21 Apr 3.0 02:44:34 10° WNW 02:48:52 33° SW 02:53:03 10° SSE visible
21 Apr 2.1 18:15:35 10° SW 18:19:45 63° SE 18:24:16 10° NE visible
21 Apr 4.2 19:55:55 10° W 19:59:45 28° NNW 20:03:02 14° NNE visible
21 Apr 5.3 21:38:01 10° NW 21:38:45 12° NNW 21:38:45 12° NNW visible
22 Apr 2.9 01:01:25 46° N 01:02:27 57° NE 01:07:08 10° ESE visible
22 Apr 3.3 02:37:58 10° WNW 02:41:53 25° SW 02:45:42 10° S visible
22 Apr 2.1 18:08:38 10° SW 18:12:52 84° SE 18:17:25 10° NE visible
22 Apr 4.5 19:49:24 10° WNW 19:53:02 24° NNW 19:56:50 10° NNE visible
22 Apr 5.2 21:31:28 10° NW 21:33:35 14° N 21:33:35 14° N visible
